TimeCST,TemperatureF,Dew PointF,Humidity,Sea Level PressureIn,VisibilityMPH,Wind Direction,Wind SpeedMPH,Gust SpeedMPH,PrecipitationIn,Events,Conditions,WindDirDegrees,DateUTC
12:53 AM,39.9,37.9,93,30.09,10.0,West,9.2,-,N/A,,Overcast,280,2013-01-17 06:53:00
1:53 AM,39.0,37.9,96,30.10,7.0,WNW,10.4,-,N/A,,Overcast,300,2013-01-17 07:53:00
2:53 AM,37.9,37.0,97,30.11,9.0,WNW,8.1,18.4,0.00,,Overcast,290,2013-01-17 08:53:00
3:53 AM,37.9,37.0,97,30.11,10.0,West,8.1,-,N/A,,Overcast,280,2013-01-17 09:53:00
4:53 AM,37.9,37.0,97,30.12,10.0,West,9.2,-,N/A,,Overcast,280,2013-01-17 10:53:00
5:43 AM,37.4,33.8,87,30.12,10.0,NW,11.5,21.9,N/A,,Overcast,310,2013-01-17 11:43:00
6:53 AM,37.0,30.9,79,30.17,10.0,WNW,15.0,25.3,N/A,,Overcast,300,2013-01-17 12:53:00
7:53 AM,37.0,30.0,76,30.20,10.0,NW,10.4,18.4,N/A,,Mostly Cloudy,320,2013-01-17 13:53:00
8:53 AM,39.0,30.0,70,30.23,10.0,NW,11.5,25.3,N/A,,Overcast,310,2013-01-17 14:53:00
9:53 AM,43.0,30.9,62,30.24,10.0,NW,12.7,23.0,N/A,,Mostly Cloudy,310,2013-01-17 15:53:00
10:53 AM,46.0,32.0,58,30.22,10.0,NNW,10.4,24.2,N/A,,Mostly Cloudy,330,2013-01-17 16:53:00
11:53 AM,48.9,32.0,52,30.21,10.0,NW,12.7,23.0,N/A,,Partly Cloudy,320,2013-01-17 17:53:00
12:53 PM,50.0,33.1,52,30.20,10.0,NW,16.1,26.5,N/A,,Scattered Clouds,320,2013-01-17 18:53:00
1:53 PM,51.1,34.0,52,30.19,10.0,NNW,11.5,20.7,N/A,,Mostly Cloudy,330,2013-01-17 19:53:00
2:53 PM,53.1,30.0,41,30.20,10.0,NNW,12.7,27.6,N/A,,Clear,340,2013-01-17 20:53:00
3:53 PM,52.0,32.0,47,30.24,10.0,NNW,11.5,21.9,N/A,,Scattered Clouds,340,2013-01-17 21:53:00
4:53 PM,50.0,33.1,52,30.27,10.0,NNW,10.4,17.3,N/A,,Clear,330,2013-01-17 22:53:00
5:53 PM,46.9,33.1,59,30.30,10.0,NNW,10.4,-,N/A,,Clear,330,2013-01-17 23:53:00
6:53 PM,46.9,33.1,59,30.34,10.0,North,9.2,16.1,N/A,,Clear,350,2013-01-18 00:53:00
7:53 PM,45.0,33.1,63,30.36,10.0,North,9.2,-,N/A,,Clear,350,2013-01-18 01:53:00
8:53 PM,46.0,33.1,61,30.37,10.0,North,12.7,23.0,N/A,,Clear,350,2013-01-18 02:53:00
9:53 PM,45.0,33.1,63,30.38,10.0,North,12.7,19.6,N/A,,Clear,350,2013-01-18 03:53:00
10:53 PM,44.1,34.0,68,30.37,10.0,North,10.4,-,N/A,,Clear,350,2013-01-18 04:53:00
11:53 PM,43.0,34.0,71,30.38,10.0,North,11.5,-,N/A,,Clear,350,2013-01-18 05:53:00